Regional Weather Roundup
Issued by NWS Lake Charles, LA

Home | Current Version | Previous Version | Text Only | Print | Product List | Glossary On
Versions: 1 2 3 4 5 6 7 8 9 10 11 12 13 14 15 16 17 18 19 20 21 22 23 24 25 26 27 28
000
ASUS44 KLCH 180411
RWRLCH
REGIONAL WEATHER ROUNDUP
NATIONAL WEATHER SERVICE LAKE CHARLES LA
1100 PM CDT THU AUG 17 2017

Note: "fair" indicates few or no clouds below 12,000 feet with no
significant weather and/or obstructions to visibility.


ACROSS SOUTHEAST TEXAS

CITY           SKY/WX    TMP DP  RH WIND       PRES   REMARKS
BEAUMONT       PTCLDY    79  77  94 S3        30.03R
BEAUMONT CITY  FAIR      81  76  86 MISG      30.04R
ORANGE         CLEAR     82  78  90 SW3       30.05R
JASPER           N/A     82  77  86 SW3       30.06R
$$

ACROSS CENTRAL LOUISIANA

CITY           SKY/WX    TMP DP  RH WIND       PRES   REMARKS
LEESVILLE      PTCLDY    80  76  88 S3        30.04R
FULLERTON      FAIR      79  76  90 CALM      30.02R
ALEXANDRIA INT PTCLDY    80  79  96 S5        30.02R
ESLER FIELD    PTCLDY    77  77 100 CALM      30.04S FOG
DERIDDER       FAIR      81  80  96 CALM      30.06R
OAKDALE        CLEAR     77  75  95 CALM      30.05R
OPELOUSAS      FAIR      79  76  92 CALM      30.05R
$$

ACROSS SOUTHWEST AND SOUTH CENTRAL LOUISIANA

CITY           SKY/WX    TMP DP  RH WIND       PRES   REMARKS
SULPHUR        PTCLDY    83  80  90 CALM      30.05R
LAKE CHARLES   CLEAR     83  79  88 CALM      30.04R
CHENNAULT INT  PTCLDY    79  78  97 CALM      30.05R
CAMERON PHI    CLEAR     86  77  74 SW8G15    30.03S
DEQUINCY       FAIR      78  76  95 SE3       30.04S
JENNINGS       FAIR      81  78  92 SW3       30.05R
LAFAYETTE      CLEAR     82  78  88 SW6       30.05R
NEW IBERIA     CLEAR     78  75  90 SW3       30.05R
ABBEVILLE      FAIR      79  79 100 CALM      30.05R
PATTERSON      CLEAR     79  78  97 CALM      30.06R
SALT POINT       N/A     85  78  80 CALM      30.03R
$$

SELECTED SITES ACROSS THE REGION

CITY           SKY/WX    TMP DP  RH WIND       PRES   REMARKS
HOUSTON BUSH   CLEAR     85  73  67 S8        30.02R
HOUSTON HOBBY  CLEAR     84  76  76 S6        30.02R
GALVESTON      CLEAR     84  78  82 S8        30.04R
COLLEGE STAT   CLEAR     85  70  60 S9        30.00R
CONROE         CLEAR     85  71  63 S7        30.02R
HUNTSVILLE     CLEAR     84  71  65 S8        30.02R
LUFKIN         CLEAR     82  75  79 S6        30.01R
SHREVEPORT     PTCLDY    79  75  87 SE3       30.01R
MONROE         CLOUDY    76  74  93 CALM      30.03R
NATCHEZ MS     CLEAR     77  75  93 CALM      30.06R
BATON ROUGE    PTCLDY    82  76  81 SW5       30.04R
N.O. INTL ARPT PTCLDY    81  78  91 S5        30.05R
SLIDELL        CLEAR     83  78  85 SW3       30.04R
$$

MARINE REPORTS

STATION/POSITION TIME  SKY/WX   TEMP    WIND        PRES    VSBY
                                AIR SEA DIR/SP/G
                 (UTC)          (F)     (DEG/KT/KT) (MB)    (MI)
BUOY 30 S HIGH I 0250            86 87  200/  8/ 10 1016.6
WVE H/P(F/S)=  3/ 7

SEA RIM ST PARK  0400            85     200/  9/ 11 1017.8R
PORT ARTHUR      0348            82 88  200/  4/  5 1017.3R
SABINE PASS N    0348            84 89  190/  6/  7 1018.7R
TEXAS POINT      NOT AVBL
CALCASIEU PASS   0348               88  220/ 12/ 14 1016.4R
LK CHARLES BEACH 0348            84 87              1017.8R
MARSH ISLAND     0300            86                   N/A
FRESH WATER LOCK 0348            84 89  200/  5/  6 1017.5R
AMERADA PASS     0348            83 87   CALM  /  2 1017.4R
$$




USA.gov is the U.S. government's official web portal to all federal, state and local government web resources and services.